TimePDT,TemperatureF,Dew PointF,Humidity,Sea Level PressureIn,VisibilityMPH,Wind Direction,Wind SpeedMPH,Gust SpeedMPH,PrecipitationIn,Events,Conditions,WindDirDegrees,DateUTC
12:56 AM,68.0,23.0,18,30.01,4.0,Calm,Calm,-,N/A,,Haze,0,2013-08-17 07:56:00
1:56 AM,66.9,23.0,19,29.99,4.0,Calm,Calm,-,N/A,,Haze,0,2013-08-17 08:56:00
2:56 AM,62.1,24.1,23,29.99,4.0,Calm,Calm,-,N/A,,Haze,0,2013-08-17 09:56:00
3:56 AM,61.0,27.0,27,29.99,4.0,ESE,6.9,-,N/A,,Haze,120,2013-08-17 10:56:00
4:56 AM,61.0,28.9,30,29.99,4.0,South,3.5,-,N/A,,Haze,180,2013-08-17 11:56:00
5:56 AM,57.9,27.0,31,29.99,4.0,SSE,4.6,-,N/A,,Haze,160,2013-08-17 12:56:00
6:56 AM,63.0,27.0,26,30.01,3.0,SSE,4.6,-,N/A,,Haze,160,2013-08-17 13:56:00
7:56 AM,71.1,30.9,23,30.02,6.0,SW,3.5,-,N/A,,Haze,230,2013-08-17 14:56:00
8:56 AM,75.0,34.0,22,30.02,8.0,West,3.5,-,N/A,,Scattered Clouds,270,2013-08-17 15:56:00
9:56 AM,80.1,37.0,21,30.02,8.0,Calm,Calm,-,N/A,,Partly Cloudy,0,2013-08-17 16:56:00
10:56 AM,86.0,30.0,13,30.01,10.0,Variable,5.8,-,N/A,,Scattered Clouds,0,2013-08-17 17:56:00
11:56 AM,88.0,30.9,13,29.99,10.0,North,6.9,-,N/A,,Scattered Clouds,360,2013-08-17 18:56:00
12:56 PM,89.1,30.0,12,29.97,10.0,Variable,4.6,-,N/A,,Mostly Cloudy,0,2013-08-17 19:56:00
1:56 PM,91.9,30.0,11,29.95,10.0,WNW,6.9,-,N/A,,Mostly Cloudy,300,2013-08-17 20:56:00
2:56 PM,91.9,28.9,11,29.92,10.0,Variable,3.5,-,N/A,,Mostly Cloudy,0,2013-08-17 21:56:00
3:56 PM,93.0,28.0,10,29.91,10.0,Variable,5.8,-,N/A,,Mostly Cloudy,0,2013-08-17 22:56:00
4:56 PM,91.9,30.0,11,29.89,10.0,NE,3.5,-,N/A,,Mostly Cloudy,40,2013-08-17 23:56:00
5:56 PM,91.9,30.9,11,29.88,10.0,Calm,Calm,-,N/A,,Mostly Cloudy,0,2013-08-18 00:56:00
6:56 PM,90.0,34.0,14,29.88,10.0,North,3.5,-,N/A,,Clear,360,2013-08-18 01:56:00
7:56 PM,84.9,39.0,20,29.88,10.0,Calm,Calm,-,N/A,,Clear,0,2013-08-18 02:56:00
8:56 PM,82.9,37.9,20,29.90,10.0,West,6.9,-,N/A,,Clear,280,2013-08-18 03:56:00
9:56 PM,81.0,37.0,21,29.91,10.0,WNW,5.8,-,N/A,,Clear,300,2013-08-18 04:56:00
10:56 PM,75.0,37.9,26,29.90,10.0,Calm,Calm,-,N/A,,Clear,0,2013-08-18 05:56:00
11:56 PM,71.1,37.0,29,29.92,10.0,SSE,5.8,-,N/A,,Clear,160,2013-08-18 06:56:00